CW4167 Weather Reports


Display with metric or nautical units.
time (UTC)temp
F
wind
direction
speed
MPH
gust
MPH
rain 1hr
in
rain 24hr
in
rain mn
in
humidity
%
barometer
mb
20260506211704 42 143 5.0 6.0 0.00 0.00 0.00 80 1011.0
20260506205205 42 139 4.0 6.0 0.00 0.00 0.00 77 1010.8
20260506204705 42 134 3.0 5.0 0.00 0.00 0.00 77 1010.7
20260506204205 42 135 3.0 5.0 0.00 0.00 0.00 76 1010.8
20260506203205 43 130 2.0 3.0 0.00 0.00 0.00 75 1010.8
20260506202205 43 130 3.0 5.0 0.00 0.00 0.00 74 1010.8
20260506201706 43 129 3.0 5.0 0.00 0.00 0.00 73 1010.6
20260506201205 44 136 3.0 5.0 0.00 0.00 0.00 72 1010.6
20260506200205 44 138 3.0 3.0 0.00 0.00 0.00 71 1010.6
20260506194704 45 139 3.0 3.0 0.00 0.00 0.00 69 1010.4
20260506194205 46 139 2.0 3.0 0.00 0.00 0.00 68 1010.4
20260506193705 46 139 5.0 5.0 0.00 0.00 0.00 68 1010.4
20260506192706 47 139 3.0 3.0 0.00 0.00 0.00 66 1010.4
20260506192205 47 139 3.0 5.0 0.00 0.00 0.00 66 1010.4
20260506191704 47 140 4.0 6.0 0.00 0.00 0.00 65 1010.3
20260506191204 48 131 5.0 6.0 0.00 0.00 0.00 64 1010.3
20260506190705 48 128 4.0 6.0 0.00 0.00 0.00 63 1010.1
20260506185704 49 125 4.0 6.0 0.00 0.00 0.00 62 1010.1
20260506183704 49 126 6.0 8.0 0.00 0.00 0.00 59 1009.9
20260506182704 50 121 7.0 10.0 0.00 0.00 0.00 58 1009.9
20260506182204 50 119 7.0 8.0 0.00 0.00 0.00 57 1009.8
20260506181204 51 126 8.0 13.0 0.00 0.00 0.00 56 1009.6
20260506175205 51 124 10.0 13.0 0.00 0.00 0.00 53 1009.5
20260506173205 53 123 10.0 14.0 0.00 0.00 0.00 50 1009.4
20260506170706 54 127 7.0 13.0 0.00 0.00 0.00 48 1009.1
20260506170204 54 117 10.0 15.0 0.00 0.00 0.00 47 1009.2
20260506165706 54 98 11.0 14.0 0.00 0.00 0.00 47 1009.1
20260506164708 54 106 12.0 17.0 0.00 0.00 0.00 46 1009.2
20260506164205 54 137 11.0 18.0 0.00 0.00 0.00 45 1009.2
20260506163705 54 115 13.0 17.0 0.00 0.00 0.00 45 1009.2
20260506162704 54 111 14.0 17.0 0.00 0.00 0.00 44 1009.1
20260506161708 54 121 16.0 18.0 0.00 0.00 0.00 45 1009.0
20260506161204 54 130 9.0 18.0 0.00 0.00 0.00 46 1009.1
20260506160204 54 131 12.0 17.0 0.00 0.00 0.00 46 1009.1
20260506155204 54 111 7.0 15.0 0.00 0.00 0.00 47 1009.0
20260506154704 54 115 10.0 14.0 0.00 0.00 0.00 46 1009.0
20260506152205 54 115 11.0 14.0 0.00 0.00 0.00 47 1009.1
20260506151704 54 117 8.0 13.0 0.00 0.00 0.00 48 1009.1
20260506151204 54 131 10.0 15.0 0.00 0.00 0.00 48 1009.1
20260506150204 54 123 10.0 15.0 0.00 0.00 0.00 47 1009.0
20260506145706 54 115 14.0 20.0 0.00 0.00 0.00 47 1009.0
20260506145204 54 123 13.0 18.0 0.00 0.00 0.00 48 1009.0
20260506143204 54 121 10.0 20.0 0.00 0.00 0.00 56 1008.8
20260506142204 55 101 14.0 18.0 0.00 0.00 0.00 60 1008.8
20260506140704 54 161 6.0 9.0 0.00 0.00 0.00 62 1008.8
20260506135204 54 7 12.0 16.0 0.00 0.00 0.00 62 1008.4
20260506134706 55 353 10.0 17.0 0.00 0.00 0.00 61 1008.4
20260506133704 56 8 9.0 14.0 0.00 0.00 0.00 60 1008.4
20260506133205 56 7 12.0 18.0 0.00 0.00 0.00 61 1008.4
20260506132704 56 349 14.0 18.0 0.00 0.00 0.00 62 1008.4
20260506132204 55 339 15.0 18.0 0.00 0.00 0.00 61 1008.3
20260506131704 55 337 11.0 18.0 0.00 0.00 0.00 62 1008.3
20260506131204 55 355 13.0 18.0 0.00 0.00 0.00 61 1008.3
20260506125204 57 337 13.0 20.0 0.00 0.00 0.00 59 1008.2
20260506124704 57 344 14.0 24.0 0.00 0.00 0.00 59 1008.1
20260506124204 57 334 14.0 18.0 0.00 0.00 0.00 61 1008.1
20260506123704 56 349 18.0 24.0 0.00 0.00 0.00 58 1008.2
20260506121204 57 329 13.0 23.0 0.00 0.00 0.00 58 1008.1
20260506115706 57 324 17.0 21.0 0.00 0.00 0.00 58 1008.1
20260506114705 57 335 14.0 22.0 0.00 0.00 0.00 58 1008.1
20260506114206 57 337 18.0 23.0 0.00 0.00 0.00 58 1008.1
20260506112206 57 335 17.0 22.0 0.00 0.00 0.00 59 1008.1
20260506111205 57 335 13.0 20.0 0.00 0.00 0.00 55 1008.2
20260506105207 57 337 14.0 23.0 0.00 0.00 0.00 54 1008.2
20260506104706 56 340 14.0 21.0 0.00 0.00 0.00 55 1008.2
20260506104205 56 342 12.0 20.0 0.00 0.00 0.00 56 1008.3
20260506103707 56 339 16.0 20.0 0.00 0.00 0.00 55 1008.3
20260506103206 56 342 14.0 20.0 0.00 0.00 0.00 55 1008.3
20260506102206 56 339 14.0 18.0 0.00 0.00 0.00 57 1008.3
20260506100706 56 335 10.0 20.0 0.00 0.00 0.00 57 1008.2
20260506100206 56 327 10.0 18.0 0.00 0.00 0.00 56 1008.3
20260506095206 57 346 16.0 18.0 0.00 0.00 0.00 54 1008.3
20260506094706 56 333 12.0 16.0 0.00 0.00 0.00 56 1008.3
20260506094207 56 344 13.0 16.0 0.00 0.00 0.00 54 1008.3
20260506093206 57 322 13.0 20.0 0.00 0.00 0.00 52 1008.3
20260506092707 57 329 12.0 16.0 0.00 0.00 0.00 49 1008.3
20260506092206 56 347 16.0 17.0 0.00 0.00 0.00 47 1008.3
20260506091705 56 326 12.0 15.0 0.00 0.00 0.00 50 1008.3
20260506091206 56 340 10.0 16.0 0.00 0.00 0.00 47 1008.3
20260506085705 56 4 12.0 15.0 0.00 0.00 0.00 46 1008.4
20260506085206 56 330 8.0 16.0 0.00 0.00 0.00 48 1008.4
20260506084205 56 0 10.0 14.0 0.00 0.00 0.00 44 1008.4
20260506083706 56 3 13.0 15.0 0.00 0.00 0.00 43 1008.4
20260506083205 56 29 8.0 14.0 0.00 0.00 0.00 46 1008.4
20260506082707 56 6 6.0 8.0 0.00 0.00 0.00 46 1008.4
20260506082205 55 354 6.0 13.0 0.00 0.00 0.00 46 1008.3
20260506081705 56 349 12.0 15.0 0.00 0.00 0.00 46 1008.3
20260506081205 56 352 9.0 14.0 0.00 0.00 0.00 49 1008.3
20260506080706 55 356 7.0 14.0 0.00 0.00 0.00 47 1008.3
20260506073205 54 21 5.0 8.0 0.00 0.00 0.00 51 1008.3
20260506071706 54 28 6.0 8.0 0.00 0.00 0.00 51 1008.3
20260506071205 53 21 5.0 8.0 0.00 0.00 0.00 51 1008.3
20260506070205 53 13 6.0 8.0 0.00 0.00 0.00 52 1008.4
20260506062206 50 30 6.0 8.0 0.00 0.00 0.00 55 1008.4
20260506061706 50 40 5.0 8.0 0.00 0.00 0.00 55 1008.5
20260506050205 43 17 3.0 5.0 0.00 0.00 0.00 62 1008.7
20260506044205 42 12 3.0 5.0 0.00 0.00 0.00 66 1008.7
20260506043705 41 9 2.0 5.0 0.00 0.00 0.00 67 1008.7
20260506042705 40 4 3.0 5.0 0.00 0.00 0.00 70 1008.7
20260506041205 39 7 3.0 3.0 0.00 0.00 0.00 72 1008.8
20260506040206 39 7 1.0 3.0 0.00 0.00 0.00 73 1008.8
20260506035206 39 7 2.0 3.0 0.00 0.00 0.00 73 1008.7
20260506034705 39 7 3.0 3.0 0.00 0.00 0.00 73 1008.7
20260506034205 39 7 3.0 5.0 0.00 0.00 0.00 72 1008.7
20260506033706 39 7 3.0 5.0 0.00 0.00 0.00 72 1008.7
20260506031705 39 5 5.0 6.0 0.00 0.00 0.00 73 1008.8
20260506030205 39 17 4.0 5.0 0.00 0.00 0.00 75 1009.0
20260506025705 40 18 3.0 5.0 0.00 0.00 0.00 75 1009.0
20260506025205 40 12 4.0 5.0 0.00 0.00 0.00 75 1009.0
20260506023205 40 12 5.0 6.0 0.00 0.00 0.00 77 1009.1
20260506022704 40 15 5.0 5.0 0.00 0.00 0.00 78 1009.2
20260506022205 40 15 5.0 5.0 0.00 0.00 0.00 78 1009.2
20260506021705 40 17 5.0 6.0 0.00 0.00 0.00 79 1009.2
20260506021205 40 19 5.0 6.0 0.00 0.00 0.00 80 1009.3
20260506020205 40 19 5.0 5.0 0.00 0.00 0.00 80 1009.3
20260506015205 41 19 3.0 3.0 0.00 0.00 0.00 80 1009.4
20260506012205 42 20 0.0 0.0 0.00 0.00 0.00 79 1009.3
20260506011706 42 20 0.0 0.0 0.00 0.00 0.00 78 1009.3
20260506010207 43 20 1.0 2.0 0.00 0.00 0.00 77 1009.2
20260506005706 43 20 1.0 3.0 0.00 0.00 0.00 77 1009.1
20260506005205 43 20 3.0 6.0 0.00 0.00 0.00 77 1009.1
20260506004705 44 16 5.0 6.0 0.00 0.00 0.00 77 1009.1
20260506003205 44 14 9.0 10.0 0.00 0.00 0.00 78 1009.0
20260506001206 43 12 8.0 8.0 0.00 0.00 0.00 79 1009.0
20260506000705 43 10 7.0 7.0 0.00 0.00 0.00 79 1009.0
20260506000205 43 14 6.0 6.0 0.00 0.00 0.00 78 1008.9
20260505235705 43 19 0.0 0.0 0.00 0.00 0.00 78 1009.0
20260505234705 43 19 4.0 6.0 0.00 0.00 0.00 77 1009.0
20260505233205 44 25 4.0 7.0 0.00 0.00 0.00 76 1009.1
20260505232706 44 17 6.0 8.0 0.00 0.00 0.00 76 1009.0
20260505232205 45 16 6.0 8.0 0.00 0.00 0.00 76 1009.0
20260505231206 45 13 7.0 8.0 0.00 0.00 0.00 76 1009.0
20260505230708 45 9 7.0 8.0 0.00 0.00 0.00 76 1009.0
20260505230205 45 11 8.0 8.0 0.00 0.00 0.00 76 1009.0
20260505225706 45 8 6.0 8.0 0.00 0.00 0.00 76 1009.0
20260505225205 45 14 7.0 8.0 0.00 0.00 0.00 76 1009.0
20260505224705 45 15 8.0 8.0 0.00 0.00 0.00 76 1009.0
20260505222705 44 16 6.0 8.0 0.00 0.00 0.00 76 1009.1
20260505222205 44 14 5.0 7.0 0.00 0.00 0.00 75 1009.1
20260505220205 44 31 5.0 6.0 0.00 0.00 0.00 71 1009.2
20260505215206 45 27 5.0 6.0 0.00 0.00 0.00 70 1009.3
20260505214205 45 22 4.0 6.0 0.00 0.00 0.00 68 1009.4